User: anonymous   Login
Location: ???????
(55.4362°N, 38.1183°E)
Time: 06:36:51
(UTC+00:00)
Language:

Cosmos 1184 Rocket - Orbit

View from above orbital plane
View from above orbital plane
View from above satellite
View from above satellite

Ground track
Ground track

The orbit data is extracted from the following two-line orbital elements,

1 11822U 80044B   21265.57354609  .00006689  00000-0  10219-3 0  9990
2 11822  81.2263 129.8792 0008362 223.8675 136.1911 15.54169976274499
Epoch (UTC): 22 September 2021 13:45:54
Eccentricity: 0.0008362
inclination: 81.2263°
perigee height: 399 km
apogee height: 410 km
right ascension of ascending node: 129.8792°
argument of perigee: 223.8675°
revolutions per day: 15.54169976
mean anomaly at epoch: 136.1911°
orbit number at epoch: 27449

The dashed part of the orbit path shows where the satellite is in the earth's shadow,  

DLR